Location: Unnamed
(48.6007°N, 2.4808°E)
Time: 03:59:58
(UTC+01:00)

FENGYUN 1C DEB - Pass Details

Date: 11 December 2023
Orbit: 508 x 828 km, 98.6° (Epoch: 21 February)

Event Time Altitude Azimuth Distance (km) Brightness Sun altitude
Rises 05:52:37 0° 7° (N) 3,379 ? -25.2°
Reaches altitude 10° 05:55:11 10° 358° (N) 2,463 ? -24.8°
Enters shadow 05:56:01 14° 353° (N) 2,192 ? -24.6°
